CEB858 RPMZ-RPLL

Flight info

Callsign CEB858
Flight time N/A
Altitude 33000
Route BURCO1E BURCO W3 IOO/N0448F320 B472 IBAGO IBAGO3R
Aircraft A21N/M-SDE2E3FGHIRWXY/LB1

Departure

Time 2026-05-08 08:04
Airport Zamboanga International Airport (RPMZ)

Arrival

Time N/A
Airport Ninoy Aquino International Airport (RPLL)
Time Latitude Longitude Altitude Speed Heading
2026-05-08 07:47 6.92055 122.06184 66 ft 0 kts 155°
2026-05-08 07:55 6.92052 122.06188 65 ft 1 kts 113°
2026-05-08 07:55 6.92058 122.06200 65 ft 2 kts 43°
2026-05-08 07:56 6.92081 122.06219 65 ft 5 kts 37°
2026-05-08 07:56 6.92115 122.06244 65 ft 6 kts 33°
2026-05-08 07:56 6.92161 122.06251 65 ft 7 kts
2026-05-08 07:56 6.92167 122.06252 65 ft 7 kts
2026-05-08 07:57 6.92200 122.06252 65 ft 7 kts 352°
2026-05-08 07:57 6.92224 122.06229 65 ft 8 kts 284°
2026-05-08 07:58 6.92244 122.05922 66 ft 11 kts 275°
2026-05-08 07:58 6.92251 122.05840 66 ft 12 kts 274°
2026-05-08 07:58 6.92256 122.05753 66 ft 12 kts 273°
2026-05-08 07:59 6.92261 122.05663 66 ft 13 kts 274°
2026-05-08 07:59 6.92268 122.05572 66 ft 13 kts 274°
2026-05-08 07:59 6.92281 122.05383 66 ft 13 kts 273°
2026-05-08 08:00 6.92287 122.05285 67 ft 14 kts 273°
2026-05-08 08:00 6.92293 122.05187 67 ft 14 kts 274°
2026-05-08 08:00 6.92299 122.05087 67 ft 14 kts 272°
2026-05-08 08:01 6.92315 122.04806 67 ft 1 kts 48°
2026-05-08 08:02 6.92317 122.04827 67 ft 3 kts 85°
2026-05-08 08:02 6.92317 122.04839 67 ft 0 kts 94°
2026-05-08 08:03 6.92307 122.04978 67 ft 56 kts 94°
2026-05-08 08:04 6.92267 122.05615 66 ft 125 kts 93°
2026-05-08 08:04 6.92192 122.06692 204 ft 167 kts 96°
2026-05-08 08:04 6.92162 122.07072 426 ft 165 kts 95°
2026-05-08 08:04 6.92027 122.08979 1472 ft 169 kts 94°
2026-05-08 08:05 6.91947 122.10153 2039 ft 170 kts 94°
2026-05-08 08:05 6.91864 122.11374 2314 ft 183 kts 94°
2026-05-08 08:05 6.91797 122.12702 2563 ft 199 kts 87°
2026-05-08 08:05 6.92306 122.14040 2765 ft 219 kts 46°
2026-05-08 08:06 6.93667 122.14824 3080 ft 238 kts 14°
2026-05-08 08:06 6.95355 122.15179 3462 ft 254 kts 14°
2026-05-08 08:06 6.97122 122.15617 3899 ft 268 kts 15°
2026-05-08 08:06 6.98939 122.16097 4579 ft 271 kts 16°
2026-05-08 08:07 7.00769 122.16582 5288 ft 273 kts 16°
2026-05-08 08:07 7.02616 122.17072 5981 ft 275 kts 17°
2026-05-08 08:07 7.04483 122.17567 6656 ft 278 kts 17°
2026-05-08 08:07 7.06361 122.18064 7301 ft 280 kts 17°
2026-05-08 08:08 7.08236 122.18559 7933 ft 283 kts 17°
2026-05-08 08:08 7.10201 122.18920 8547 ft 289 kts
2026-05-08 08:08 7.12165 122.18441 9142 ft 296 kts 341°
2026-05-08 08:08 7.14103 122.17666 9758 ft 298 kts 341°
2026-05-08 08:09 7.16061 122.16891 10308 ft 302 kts 341°
2026-05-08 08:09 7.18049 122.16130 10601 ft 315 kts 342°
2026-05-08 08:09 7.20167 122.15339 10856 ft 329 kts 342°
2026-05-08 08:09 7.22361 122.14531 11235 ft 338 kts 342°
2026-05-08 08:10 7.24614 122.13709 11539 ft 350 kts 342°
2026-05-08 08:10 7.26943 122.12865 11770 ft 362 kts 342°
2026-05-08 08:10 7.29379 122.11982 11991 ft 375 kts 342°
2026-05-08 08:10 7.31860 122.11118 12189 ft 386 kts 346°
2026-05-08 08:11 7.34536 122.10579 12382 ft 394 kts 356°
2026-05-08 08:11 7.37305 122.10532 12557 ft 401 kts
2026-05-08 08:11 7.40146 122.10802 12745 ft 410 kts
2026-05-08 08:11 7.42987 122.11122 13054 ft 415 kts
2026-05-08 08:12 7.45873 122.11454 13451 ft 417 kts
2026-05-08 08:12 7.48796 122.11788 13842 ft 419 kts
2026-05-08 08:12 7.51707 122.12116 14216 ft 421 kts
2026-05-08 08:12 7.54636 122.12446 14584 ft 423 kts
2026-05-08 08:13 7.57577 122.12776 14926 ft 426 kts
2026-05-08 08:13 7.60548 122.13107 15254 ft 428 kts
2026-05-08 08:13 7.63516 122.13438 15580 ft 430 kts
2026-05-08 08:13 7.66504 122.13770 15907 ft 432 kts
2026-05-08 08:14 7.69495 122.14103 16222 ft 434 kts
2026-05-08 08:14 7.72504 122.14438 16509 ft 436 kts
2026-05-08 08:14 7.75568 122.14778 16793 ft 438 kts
2026-05-08 08:14 7.78614 122.15116 17078 ft 440 kts
2026-05-08 08:15 7.81663 122.15455 17348 ft 441 kts
2026-05-08 08:15 7.84739 122.15796 17643 ft 442 kts
2026-05-08 08:15 7.87769 122.16132 18239 ft 435 kts
2026-05-08 08:15 7.90752 122.16461 18975 ft 424 kts
2026-05-08 08:16 7.93647 122.16782 19536 ft 419 kts
2026-05-08 08:16 7.96568 122.17109 19833 ft 421 kts
2026-05-08 08:16 7.99468 122.17433 20093 ft 423 kts
2026-05-08 08:16 8.02412 122.17761 20372 ft 425 kts
2026-05-08 08:17 8.05388 122.18093 20653 ft 427 kts
2026-05-08 08:17 8.08356 122.18424 21104 ft 424 kts
2026-05-08 08:17 8.11249 122.18744 21815 ft 413 kts
2026-05-08 08:17 8.14059 122.19054 22540 ft 402 kts
2026-05-08 08:18 8.16859 122.19367 23101 ft 397 kts
2026-05-08 08:18 8.19589 122.19674 23433 ft 398 kts
2026-05-08 08:18 8.22350 122.19983 23715 ft 400 kts
2026-05-08 08:18 8.25131 122.20294 24003 ft 402 kts
2026-05-08 08:19 8.27957 122.20611 24285 ft 404 kts
2026-05-08 08:19 8.30766 122.20924 24560 ft 407 kts
2026-05-08 08:19 8.33599 122.21240 24840 ft 408 kts
2026-05-08 08:19 8.36414 122.21554 25105 ft 410 kts
2026-05-08 08:20 8.39262 122.21870 25366 ft 412 kts
2026-05-08 08:20 8.42143 122.22190 25625 ft 414 kts
2026-05-08 08:20 8.45008 122.22510 25875 ft 417 kts
2026-05-08 08:20 8.47910 122.22834 26133 ft 418 kts
2026-05-08 08:21 8.50825 122.23160 26383 ft 420 kts
2026-05-08 08:21 8.53727 122.23483 26632 ft 422 kts
2026-05-08 08:21 8.56686 122.23813 26877 ft 424 kts
2026-05-08 08:21 8.59597 122.24137 27112 ft 425 kts
2026-05-08 08:22 8.62559 122.24468 27347 ft 427 kts
2026-05-08 08:22 8.65525 122.24799 27579 ft 429 kts
2026-05-08 08:22 8.68511 122.25132 27802 ft 431 kts
2026-05-08 08:22 8.71512 122.25467 28016 ft 433 kts
2026-05-08 08:23 8.74519 122.25802 28229 ft 435 kts
2026-05-08 08:23 8.77564 122.26141 28444 ft 437 kts
2026-05-08 08:23 8.80580 122.26479 28662 ft 439 kts
2026-05-08 08:23 8.83617 122.26819 28885 ft 441 kts
2026-05-08 08:24 8.86675 122.27162 29107 ft 442 kts
2026-05-08 08:24 8.89770 122.27509 29334 ft 444 kts
2026-05-08 08:24 8.92871 122.27856 29562 ft 446 kts
2026-05-08 08:24 8.95941 122.28199 29777 ft 447 kts
2026-05-08 08:25 8.99040 122.28546 29989 ft 449 kts
2026-05-08 08:25 9.02158 122.28895 30208 ft 451 kts
2026-05-08 08:25 9.05292 122.29245 30414 ft 453 kts
2026-05-08 08:25 9.08457 122.29599 30606 ft 455 kts
2026-05-08 08:26 9.11622 122.29953 30809 ft 457 kts
2026-05-08 08:26 9.14810 122.30309 31003 ft 458 kts
2026-05-08 08:26 9.18003 122.30667 31204 ft 460 kts
2026-05-08 08:26 9.21194 122.31024 31406 ft 462 kts
2026-05-08 08:27 9.24414 122.31384 31589 ft 464 kts
2026-05-08 08:27 9.27630 122.31745 31788 ft 465 kts
2026-05-08 08:27 9.30840 122.32104 31980 ft 466 kts
2026-05-08 08:27 9.34087 122.32468 32174 ft 468 kts
2026-05-08 08:28 9.37339 122.32832 32356 ft 469 kts
2026-05-08 08:28 9.40598 122.33197 32546 ft 471 kts
2026-05-08 08:28 9.43850 122.33560 32740 ft 473 kts
2026-05-08 08:29 9.50409 122.34294 32776 ft 473 kts
2026-05-08 08:29 9.56974 122.35030 32778 ft 473 kts
2026-05-08 08:30 9.63537 122.35765 32775 ft 473 kts
2026-05-08 08:30 9.73364 122.36868 32777 ft 473 kts
2026-05-08 08:31 9.79945 122.37608 32776 ft 473 kts
2026-05-08 08:31 9.86476 122.38341 32781 ft 473 kts
2026-05-08 08:32 9.93070 122.39081 32785 ft 474 kts
2026-05-08 08:32 9.99626 122.39815 32789 ft 474 kts
2026-05-08 08:33 10.06222 122.40556 32792 ft 474 kts
2026-05-08 08:33 10.12769 122.41270 32789 ft 473 kts
2026-05-08 08:34 10.16113 122.41177 32858 ft 475 kts 352°
2026-05-08 08:34 10.19374 122.40509 33130 ft 473 kts 343°
2026-05-08 08:34 10.22520 122.39529 33495 ft 470 kts 341°